Regional Weather Roundup
Issued by NWS

Home | Current Version | Previous Version | Graphics & Text | Print | Product List | Glossary On
Versions: 1 2 3 4 5 6 7 8 9 10 11 12 13 14 15 16 17 18 19 20 21 22 23 24 25 26 27 28 29 30 31 32 33 34 35 36 37 38 39 40 41 42 43 44 45 46 47 48 49 50
000
ASUS44 KMEG 020110
RWRTN
TENNESSEE HOURLY STATE WEATHER ROUNDUP
NATIONAL WEATHER SERVICE MEMPHIS TN
700 PM CST SUN MAR 01 2015

TNZ002-004-019-021-049-052-054-088>092-020200-
WEST TENNESSEE

CITY           SKY/WX    TMP DP  RH WIND       PRES   REMARKS
MEMPHIS INTL   LGT RAIN  42  40  92 N7        30.34R VSB 1
NWS MEMPHIS      N/A     42 N/A N/A MISG        N/A
JACKSON        CLOUDY    43  41  93 NW7       30.33R FOG
DYERSBURG      CLOUDY    36  23  60 CALM      30.38R
UNION CITY     CLOUDY    32  32 100 CALM      30.34R
PARIS          CLOUDY    34  34 100 N6        30.34R WCI  29
LEXINGTON      CLOUDY    48  48 100 NW8       30.30S
SAVANNAH       CLOUDY    50  50 100 CALM      30.32R
$$

TNZ008-025-027-028-033-062-065-066-020200-
NORTH MIDDLE TENNESSEE

CITY           SKY/WX    TMP DP  RH WIND       PRES   REMARKS
NASHVILLE      CLOUDY    49  49 100 S3        30.31R FOG
CLARKSVILLE    CLOUDY    39  38  96 NW8       30.33R FOG     WCI  33
SMYRNA         LGT RAIN  49  49 100 S5        30.32S FOG
COOKEVILLE     CLOUDY    48  48 100 SW3       30.30R
CROSSVILLE     CLOUDY    46  44  93 S6        30.31S FOG
$$

TNZ061-075-076-078-094-096-097-020200-
SOUTH MIDDLE TENNESSEE

CITY           SKY/WX    TMP DP  RH WIND       PRES   REMARKS
FAYETTEVILLE   CLOUDY    46  45  93 S7          N/A
TULLAHOMA      CLOUDY    48  46  93 S3        30.32S
WINCHESTER     CLOUDY    46  46 100 SE6       30.33S
MCMINNVILLE    CLOUDY    48  48 100 CALM      30.32R
COLUMBIA       CLOUDY   N/A N/A N/A CALM      30.30R
SHELBYVILLE    CLOUDY    48  48 100 S5        30.32S
$$

TNZ017-018-042-046-047-020200-
NORTHEAST TENNESSEE

CITY           SKY/WX    TMP DP  RH WIND       PRES   REMARKS
TRI CITIES     CLOUDY    45  43  93 SW7       30.32R
ELIZABETHTON   LGT RAIN  45  43  93 W9        30.32R FOG
$$

TNZ012-013-036-069-073-074-020200-
CENTRAL EAST TENNESSEE

CITY           SKY/WX    TMP DP  RH WIND       PRES   REMARKS
KNOXVILLE      CLOUDY    44  43  96 SW3       30.33S FOG
OAK RIDGE      CLOUDY    45  43  93 SW5       30.33F FOG
GATLINBURG     CLOUDY    43  39  87 CALM      30.33R
MORRISTOWN       N/A     45  39  81 CALM      30.32S
$$

TNZ083-085-099-020200-
SOUTHEAST TENNESSEE

CITY           SKY/WX    TMP DP  RH WIND       PRES   REMARKS
CHATTANOOGA    CLOUDY    48  44  86 S5        30.36S FOG
$$

SKY/WX REPORTED AS FAIR MEANS FEW OR NO CLOUDS BELOW
12 THOUSAND FEET.




USA.gov is the U.S. government's official web portal to all federal, state and local government web resources and services.